Regional Weather Roundup
Issued by NWS Albany, NY

Home | Current Version | Previous Version | Text Only | Print | Product List | Glossary On
Versions: 1 2 3 4 5 6 7 8 9 10 11 12 13 14 15 16 17 18 19 20 21 22 23 24 25 26 27 28 29 30 31 32 33 34 35 36 37 38 39 40 41 42 43 44 45 46 47 48 49 50
000
ASUS41 KALY 220610
RWRALY

NEW YORK STATE HOURLY WEATHER ROUNDUP
NATIONAL WEATHER SERVICE ALBANY NY
200 AM EDT SUN OCT 22 2017

NOTE: "FAIR" INDICATES FEW OR NO CLOUDS BELOW 12,000 FEET WITH NO
SIGNIFICANT WEATHER AND/OR NO OBSTRUCTIONS TO VISIBILITY.

NYZ032-033-038>043-046>054-057>066-NYZ062>081-082-084-220700-
EAST


CITY           SKY/WX    TMP DP  RH WIND       PRES   REMARKS
ALBANY         PTCLDY    46  43  89 CALM      30.35R
GLENS FALLS    PTCLDY    39  38  96 CALM      30.34R
POUGHKEEPSIE   CLEAR     44  42  93 CALM      30.34S
NEWBURGH       CLEAR     52  45  76 CALM      30.36S
MONTGOMERY     CLEAR     45  42  89 CALM      30.35S
WHITE PLAINS   CLEAR     52  48  86 NW6       30.35S
ISLIP          CLEAR     52  52 100 CALM      30.35F FOG
NEW YORK CITY  CLEAR     64  47  53 CALM      30.35S
CENTRAL PARK   CLEAR     64  45  49 CALM      30.38S
$$

NYZ005>009-017-018-044>046-055-056-220700-
CENTRAL


CITY           SKY/WX    TMP DP  RH WIND       PRES   REMARKS
FULTON         CLEAR     50  46  86 SE3       30.29R
SYRACUSE       PTCLDY    43  42  97 E5        30.29R
ROME           PTCLDY    44  42  93 SE6       30.34R
ELMIRA         CLEAR     44  41  89 CALM      30.32S
BINGHAMTON     CLOUDY    57  39  51 S6        30.34S
MONTICELLO     CLOUDY    44  41  89 CALM      30.38F
$$

NYZ026>034-041>043-087-220700-
NORTH


CITY           SKY/WX    TMP DP  RH WIND       PRES   REMARKS
WATERTOWN      CLEAR     41  41 100 CALM      30.27S
FORT DRUM      NOT AVBL
MASSENA        PTCLDY    46  45  96 CALM      30.30R
SARANAC LAKE   CLOUDY    36  36 100 CALM      30.33S
PLATTSBURGH    PTCLDY    47  46  97 CALM      30.31R
$$

NYZ001>004-010>016-019>021-085-220700-
WEST


CITY           SKY/WX    TMP DP  RH WIND       PRES   REMARKS
NIAGARA FALLS  PTCLDY    56  45  66 E5        30.22S
BUFFALO        MOCLDY    56  44  64 SE5       30.23S
DUNKIRK        PTCLDY    64  46  52 S18G24    30.22S
JAMESTOWN      CLEAR     55  43  63 S7        30.28S
WELLSVILLE     CLEAR     60  40  47 S7        30.33R
ROCHESTER      PTCLDY    49  46  90 SW3       30.26S
PENN YAN       CLEAR     58  43  57 SW6       30.29R
$$

             KEY
       WCI = WIND CHILL INDEX
       VSB = VISIBILITY
       HX  = HEAT INDEX
$$



USA.gov is the U.S. government's official web portal to all federal, state and local government web resources and services.